Location: Unspecified
(58.9933°N, 5.6375°E)
Time: 10:06:54
(UTC+02:00)

Resurs 1-4 Rocket - Visible Passes

Search period start: 17 April 2014 00:00
Search period end: 27 April 2014 00:00
Orbit: 800 x 815 km, 98.3° (Epoch: 16 April)

Date Brightness Start Highest point End Pass type
(mag) Time Alt. Az. Time Alt. Az. Time Alt. Az.
18 Apr 4.3 05:11:52 10° NNE 05:16:19 27° E 05:20:44 10° SSE visible
19 Apr 4.7 04:47:53 10° NE 04:51:35 19° E 04:55:15 10° SE visible
20 Apr 4.9 04:24:21 10° NE 04:26:46 13° E 04:29:10 10° ESE visible
22 Apr 4.2 05:14:08 10° NNE 05:18:38 28° E 05:23:08 10° SSE visible
23 Apr 4.7 04:50:07 10° NE 04:53:55 20° E 04:57:43 10° SE visible
24 Apr 4.9 04:26:29 10° NE 04:29:06 14° E 04:31:43 10° ESE visible
